Flight Track Log - Related Links

Times and Time Zones

All times are in EDT time to prevent confusion due to time zone crossing. See the WAV324 flight status page for this flight to view local times or setup timezone preferences in your user account.

Time Position Orientation Groundspeed Altitude Reporting Facility
EDT Latitude Longitude Course Direction KTS MPH feet Rate Location/Type
Sun 06:55:32 PM 64.7500 -148.1333 16° North 160 184 4,700  Level Anchorage Center
Sun 06:56:32 PM 64.7833 -148.0833 33° Northeast 160 184 5,300 700 Climbing Anchorage Center
Sun 06:57:00 PM 65.0669 -147.8164 23° Northeast  Level FlightAware Approximate
Sun 06:57:32 PM 64.8167 -148.0333 33° Northeast 160 184 6,100  Level Anchorage Center
Sun 06:58:00 PM 65.1092 -147.7871 12° North  Level FlightAware Approximate
Sun 06:58:33 PM 64.8667 -147.9833 23° Northeast 160 184 6,700  Level Anchorage Center
Sun 06:59:00 PM 65.1518 -147.7587 16° North  Level FlightAware Approximate
Sun 06:59:33 PM 64.9000 -147.9333 32° Northeast 160 184 7,400  Level Anchorage Center
Sun 07:00:00 PM 65.1942 -147.7288 16° North  Level FlightAware Approximate
Sun 07:00:34 PM 64.9500 -147.9000 16° North 160 184 8,000  Level Anchorage Center
Sun 07:01:00 PM 65.2366 -147.6989 16° North  Level FlightAware Approximate
Sun 07:01:34 PM 64.9833 -147.8667 23° Northeast 180 207 8,000  Level Anchorage Center
Sun 07:02:34 PM 65.0333 -147.8333 16° North 180 207 8,000  Level Anchorage Center
Sun 07:03:35 PM 65.0833 -147.8000 16° North 180 207 8,000  Level Anchorage Center
Sun 07:04:35 PM 65.1333 -147.7667 16° North 170 196 8,000  Level Anchorage Center
Sun 07:05:36 PM 65.1833 -147.7333 16° North 170 196 8,000  Level Anchorage Center
Sun 07:06:36 PM 65.2333 -147.7000 16° North 170 196 8,000  Level Anchorage Center
Sun 07:07:36 PM 65.2667 -147.6833 12° North 170 196 8,000  Level Anchorage Center
Sun 07:08:37 PM 65.3167 -147.6500 16° North 180 207 8,000  Level Anchorage Center
Sun 07:09:37 PM 65.3667 -147.6167 16° North 180 207 8,000  Level Anchorage Center
Sun 07:10:37 PM 65.4167 -147.5833 15° North 170 196 8,000  Level Anchorage Center
Sun 07:11:38 PM 65.4667 -147.5500 15° North 180 207 8,000  Level Anchorage Center
Sun 07:12:38 PM 65.5167 -147.5167 15° North 180 207 8,000  Level Anchorage Center
Sun 07:13:38 PM 65.5667 -147.4833 15° North 180 207 8,000  Level Anchorage Center
Sun 07:14:38 PM 65.6000 -147.4500 22° Northeast 180 207 8,000  Level Anchorage Center
Sun 07:16:00 PM 65.6575 -147.4051 18° North  Level FlightAware Approximate
Sun 07:23:00 PM 65.9192 -147.0445 46° Northeast  Level FlightAware Approximate
Sun 07:24:00 PM 65.9496 -146.9655 47° Northeast  Level FlightAware Approximate
Sun 07:25:00 PM 65.9798 -146.8863 47° Northeast  Level FlightAware Approximate
Sun 07:26:00 PM 66.0101 -146.8069 47° Northeast  Level FlightAware Approximate
Sun 07:27:00 PM 66.0403 -146.7274 47° Northeast  Level FlightAware Approximate
Sun 07:28:00 PM 66.0704 -146.6476 47° Northeast  Level FlightAware Approximate
Sun 07:29:00 PM 66.1006 -146.5677 47° Northeast  Level FlightAware Approximate
Sun 07:30:00 PM 66.1306 -146.4876 47° Northeast  Level FlightAware Approximate
Sun 07:31:00 PM 66.1607 -146.4073 47° Northeast  Level FlightAware Approximate
Sun 07:32:00 PM 66.1907 -146.3268 47° Northeast  Level FlightAware Approximate
Sun 07:33:00 PM 66.2206 -146.2461 47° Northeast  Level FlightAware Approximate
Sun 07:34:00 PM 66.2505 -146.1650 55° Northeast  Level FlightAware Approximate
Sun 07:35:00 PM 66.2761 -146.0754 55° Northeast  Level FlightAware Approximate
Sun 07:36:00 PM 66.3044 -145.9911 48° Northeast  Level FlightAware Approximate
Sun 07:37:00 PM 66.3338 -145.9088 48° Northeast  Level FlightAware Approximate
Sun 07:38:00 PM 66.3632 -145.8264 48° Northeast  Level FlightAware Approximate
Sun 07:39:00 PM 66.3928 -145.7442 48° Northeast  Level FlightAware Approximate
Sun 07:40:00 PM 66.4223 -145.6620 48° Northeast  Level FlightAware Approximate
Sun 07:41:00 PM 66.4518 -145.5795 48° Northeast  Level FlightAware Approximate
Sun 07:42:00 PM 66.4813 -145.4968 48° Northeast  Level FlightAware Approximate
Sun 07:43:00 PM 66.5107 -145.4140 48° Northeast  Level FlightAware Approximate
Sun 07:44:00 PM 66.5393 -145.3293 54° Northeast  Level FlightAware Approximate
Sun 07:45:00 PM 66.5651 -145.2390 54° Northeast  Level FlightAware Approximate
Sun 07:46:00 PM 66.5667 -145.2333 54° Northeast  Level FlightAware Approximate
Sun 07:47:00 PM 66.5724 -145.2463 54° Northeast  Level Estimated
Sun 07:48:00 PM 66.5724 -145.2463 54° Northeast  Level Estimated
Sun 07:49:00 PM 66.5724 -145.2463 54° Northeast  Level Estimated
Sun 07:50:00 PM 66.5724 -145.2463 54° Northeast  Level Estimated
Sun 07:51:00 PM 66.5724 -145.2463 54° Northeast  Level Estimated
Sun 07:52:00 PM 66.5724 -145.2463 54° Northeast  Level Estimated
Sun 07:53:00 PM 66.5724 -145.2463 54° Northeast  Level Estimated
Sun 07:54:00 PM 66.5724 -145.2463 54° Northeast  Level Estimated

Login

Don't have an account? Register now (free) for customized features, flight alerts, and more!